STARLINK-1832 (46780 NORAD) Tracking and Keplerian Element Data

This shows tracking and keplerian element data for the satellite.

Feedback or suggestion? Click here.




ElementValue
Catalog46780
NameSTARLINK-1832
Epoch Orbit181
Epoch Day330.91667824
Epoch Year2020
RAAN2.014
Inclination53.0551
Eccentricity0.0001062
Argument of Perigee75.465
Mean Anonmoly160.6277
Mean Motion15.62761529
Decay Rate0.00081632
L11 46780U 20074AT 20330.91667824 .00081632 00000-0 88815-3 0 9992
L22 46780 53.0551 2.0140 0001062 75.4650 160.6277 15.62761529 1812

Live tracking and technical data element details for STARLINK-1832 (NORAD 46780). STARLINK-1832 can be tracked NOW for your location showing map with azimuth and elevation plus other details from your city location.

Track the satellite on the map from your city or location and see movement details for azimuth, elevation, latitude, longitude, range, height, and movement on the map or in text.







IsCatalogInMostPopularTable: catalog: 46780, numindb: 7
Update: records affected: 1



GetName: 46780 STARLINK-1832

Hit Count: updated at: Thu, 26 Nov 2020 21:38:40 GMT